Flag for U.S.A. Weather past 2 weeks in Macon, Georgia, U.S.A.

Now
53 °F

Clear.


Feels Like: 49 °F
Forecast: 38 / 55 °F
Wind: 14 mph from Northwest

Location: Middle Georgia Regional Airport

Current Time: Dec 24, 2014 at 9:13:57 PM

Latest Report: Dec 24, 2014 at 8:53 PM


Visibility: 10 mi

Pressure: 29.85 "Hg

Humidity: 80%

Dew point: 47 °F

Location of MaconLocation

Historic Weather in Macon — Graph

°F

Macon temperature yesterday

Maximum temperature yesterday: 62 °F (at 11:53 PM)
Minimum temperature yesterday: 46 °F (at 12:03 AM)
Average temperature yesterday: 52 °F

Past Weeks' High & Low Weather Summary

 TemperatureHumidityPressure
High71 °F (Dec 14, 2:53 PM)100% (Dec 14, 4:53 AM)30.32 "Hg (Dec 14, 4:53 AM)
Low26 °F (Dec 11, 4:53 AM)17% (Dec 12, 2:53 PM)29.66 "Hg (Dec 24, 3:53 PM)
Average48 °F77%30.08 "Hg
* Reported Dec 9 7:53 PM — Dec 24 7:53 PM, Macon, Weather by CustomWeather, © 2014

Note: Actual official high and low records may vary slightly from our data, if they occured in-between our weather recording intervals... More about our weather records

Advertising

Macon weather history for previous 24 hours

 ConditionsComfort  
Time TempWeatherWind HumidityBarometerVisibility
7:53 PM
Dec 24
56 °FPassing clouds.17 mph81%29.80 "Hg10 mi
6:53 PM59 °FPassing clouds.18 mph84%29.76 "Hg10 mi
5:53 PM65 °FPartly cloudy.25 mph81%29.72 "Hg10 mi
4:53 PM67 °FSunny.12 mph85%29.67 "Hg10 mi
3:53 PM68 °FPassing clouds.7 mph90%29.66 "Hg10 mi
2:53 PM68 °FScattered clouds.9 mph90%29.67 "Hg10 mi
1:53 PM68 °FBroken clouds.7 mph93%29.66 "Hg10 mi
12:53 PM67 °FBroken clouds.12 mph97%29.68 "Hg10 mi
11:53 AM65 °FLight rain. Mostly cloudy.8 mph100%29.68 "Hg8 mi
10:53 AM63 °FLow clouds.9 mph100%29.70 "Hg7 mi
10:00 AM63 °FLight rain. Fog.7 mph100%29.70 "Hg6 mi
8:53 AM61 °FRain. Fog.3 mph100%29.71 "Hg4 mi
7:53 AM60 °FHeavy rain. Fog.3 mph100%29.68 "Hg3 mi
7:03 AM61 °FRain. Fog.7 mph100%29.70 "Hg4 mi
6:53 AM60 °FHeavy rain. Fog.5 mph100%29.69 "Hg2 mi
5:53 AM59 °FRain. Fog.7 mph100%29.69 "Hg3 mi
5:00 AM59 °FHeavy rain. Fog.6 mph100%29.69 "Hg3 mi
3:53 AM59 °FHeavy rain. Fog.5 mph100%29.70 "Hg4 mi
2:53 AM59 °FRain. Fog.7 mph100%29.72 "Hg5 mi
1:53 AM60 °FRain. Fog.No wind100%29.76 "Hg5 mi
12:59 AM61 °FHeavy rain. Fog.8 mph100%29.78 "Hg2 mi
11:53 PM
Dec 23
62 °FOvercast.10 mph100%29.72 "Hg10 mi
10:53 PM60 °FPassing clouds.9 mph100%29.71 "Hg10 mi
9:53 PM59 °FLow clouds.8 mph100%29.73 "Hg10 mi
Weather by CustomWeather, © 2014

See weather overviewHow to use our weather pages